Showing default

GALILEO 14 (26B), 41549

Orbit data source: Space-Track

GALILEO 14 (26B), 41549 is a payload satellite owned by GNSS Agency (ESA) that was launched on Tue, 24 May 2016 UTC via a SOYUZ-ST-B launch vehicle from the French Guiana (FRGUI). Payload-class satellites include a variety of spacecraft equipped with specific instruments for various scientific and technological missions. These include communications satellites like Starlink; space stations such as the ISS; scientific satellites like the Hubble; Earth observation satellites from companies like Planet Labs, Umbra, and HawkEye 360; GPS; miniature CubeSats for education and research; and military/defense satellites.

Loading next visibility...
Identifier
41549, 2016-030A
Orbit
Active
Last TLE update
3 days ago
Origin
Manufacturer
OHB
Mission
Operational Civil Navigation
Bus & Motor
GALILEOSAT, AOCS
Mass
733 kg wet, 660 kg dry
Launch date (UTC)
2016-05-24 (9 years ago)
Launch vehicle
SOYUZ-ST-B
Launch site
French Guiana (FRGUI)
Object type
Payload
Rocket body
Debris
Shape & HBR
Box + 2 Pan, 14.71 m
Radar Cross Section
9.223 m², Large (>1 m²)

Expand to show TLE details & history

TLE from 3 days ago
0 GALILEO 14 (26B)
1 41549U 16030A   25126.29315938 -.00000041  00000-0  00000-0 0  9995
2 41549  55.2302 232.8852 0002104 351.0225   8.9711  1.70474143 55734
Epoch: 2025-05-06T07:02Z
Definitive object data (Epoch: 2025-05-06T07:02:08.97Z)
Latitude
-0.00006°
Longitude
-97.05926°
Altitude
23,216.281 km
Speed
3.67 km/s
True Right ascension
15h 31m 29s
True Declination
0° 00' 00"
Sunlit
Object was in daylight at TLE epoch
Visualization TLE readout
Latitude
-10.21983°
Longitude
-104.31288°
Altitude
23,218.186 km
Speed
3.67 km/s
Apparent Right ascension
15h 24m 33s
Apparent Declination
-20° 27' 12"
Sunlit
Object is in full shadow
Visualization observer readout
Local Sidereal Time
13:04:56
Azimuth
144.837° SSE
Elevation
21.415°
Doppler factor
1
Orbital elements
Apogee altitude
23,228.394 km
Perigee altitude
23,215.939 km
Semi-major axis
29,600.304 km
Eccentricity
0.0002104
Inclination
55.2302°
RAAN
232.8852°
Arg. of periapsis
351.0225°
True anomaly
8.97486°
Mean anomaly
8.9711°
Eccentric anomaly
8.97298°
Mean motion
0.42619 °/min
BSTAR
Unknown
Orbital period
844.7 mins
Loading maneuver chart data...
Loading SW <> Apogee altitude chart data...
Loading historical data...
Loading historical data...
Loading historical data...
Loading historical data...
Loading historical data...
Loading historical data...
Loading historical data...
Other satellites on launch #30 in the year 2016 (2016-05-24 UTC)

GALILEO 14 (26B) Visibility forecast

Observer location: undefined°, undefined°

Span
Click to sort rows by Start time (UTC) header in descending order
Start Az.
Max El. time (UTC)
Max El. Az.
Max El.
End time (UTC)
End Az.
319 mins2025-05-09 04:56:21.369Z144.851° SSE2025-05-09 07:13:21.369Z87.648° E40.134°2025-05-09 10:15:21.369Z51.636° ENE
|